Starlink 11436

operational
NORAD ID: 62887 Int'l Des: 2025-024 Owner: SPXS Country: US Constellation: starlink
LEOCIRCULAR

Über Starlink 11436

Beschreibung wird geladen...

Live-Position

3D-Globus wird geladen...

Nächste Überflüge

Höhenverlauf

Altitude vs Time

uPlot chart will show altitude changes over time

Zweizeiliger Elementsatz

1 62887U 25024J 25352.34239090 .00170593 00000-0 13031-2 0 9996
2 62887 42.9998 311.7122 0000706 320.4906 39.5910 15.70890706 50676
Epoch: 18. Dez. 2025 • Age: 20 hours

Aktueller Status

Höhe 354.3 km
Geschwindigkeit 7.70 km/s
Subsatellitenpunkt 11.93°N, 169.81°E
Startdatum 4. Feb. 2025
Alter 0.8 years
Typ internet

Technische Details

Klassifizierung Payload
Masse 960.00 kg
Trockenmasse 910.00 kg
Gesamtmasse 960.00 kg
Länge 0.30 m
Durchmesser 4.10 m
Spannweite 29.00 m
Form Box + pan
Hersteller SPXS
Bus-Typ Starlink V2MD
Phasenstatus In Orbit
Besitzer/Staat SPXS/US

Große Konstellationen

Loading constellations...